Regional Weather Roundup
Issued by NWS

Home | Current Version | Previous Version | Graphics & Text | Print | Product List | Glossary On
Versions: 1 2 3 4 5 6 7 8 9 10 11 12 13 14 15 16 17 18 19 20 21 22 23 24 25 26 27 28 29 30 31 32 33 34 35 36 37 38 39 40 41 42 43 44 45 46 47 48 49 50
000
ASUS43 KLOT 031903
RWRIL

ILLINOIS REGIONAL WEATHER ROUNDUP
NATIONAL WEATHER SERVICE CHICAGO/ROMEOVILLE IL
100 PM CST SAT DEC 03 2016

NOTE: "FAIR" INDICATES FEW OR NO CLOUDS BELOW 12,000 FEET WITH NO
SIGNIFICANT WEATHER AND/OR OBSTRUCTIONS TO VISIBILITY.

* THESE STATIONS ARE NOT UNDER NWS QUALITY CONTROL. THEY ALSO MAY NOT
  REPORT WEATHER SUCH AS PRECIPITATION OR FOG.

ILZ001-002-007-009-015-016-024-032000-
NORTHWEST ILLINOIS

CITY           SKY/WX    TMP DP  RH WIND       PRES   REMARKS
MOLINE         CLOUDY    39  25  57 SW6       30.33F WCI  35
STERLING*      CLOUDY    37  26  64 W5        30.33F WCI  33
$$

ILZ003-004-008-010-011-017-018-032000-
NORTH CENTRAL ILLINOIS

CITY           SKY/WX    TMP DP  RH WIND       PRES   REMARKS
ROCKFORD       CLOUDY    35  24  64 W5        30.35F WCI  31
FREEPORT*      CLOUDY    34  25  71 SW3       30.34F
ROCHELLE*      CLOUDY    34  26  71 CALM      30.34F
$$

ILZ005-006-012>014-019>023-032000-
NORTHEAST ILLINOIS

CITY           SKY/WX    TMP DP  RH WIND       PRES   REMARKS
CHICAGO-OHARE  CLOUDY    33  23  66 W8        30.34R WCI  26
CHICAGO-MIDWAY CLOUDY    34  22  61 W8        30.35  WCI  27
AURORA         CLOUDY    34  25  69 W8        30.35F WCI  27
LANSING*       CLOUDY    34  27  75 W3        30.34F
WAUKEGAN       CLOUDY    32  23  69 VRB3      30.34R
DUPAGE AIRPORT CLOUDY    33  23  66 W9        30.34S WCI  25
WHEELING       CLOUDY    33  22  63 SW9       30.36R WCI  25
MORRIS*        CLOUDY    34  26  72 NW5       30.35F WCI  29
NORTHERLY ISL    N/A     34  22  61 S5          N/A  WCI  30
$$

LMZ740>746-032000-
SOUTHERN LAKE MICHIGAN

STATION/POSITION SKY/WX   TEMP    WIND        PRES    VSBY  WAVE
                          AIR SEA DIR/SP/G                  HT/PER
                          (F)     (DEG/KT/KT) (MB)    (MI)  (FT/S)
SOUTHERN BUOY              35 49  260/ 10/ 12 1027.0R         1/ 3
HARRISON CRIB              34     260/  6/  7   N/A
BURNHAM HARBOR             34     230/  4/  8   N/A
CALUMET HARBOR             34     260/  4/  8 1027.0F
BURNS HARBOR               36     270/  9/ 10 1027.8F
MICHIGAN CITY              35     250/ 13/ 15   N/A
$$

ILZ025>027-034>036-040-047-049-050-058-095>099-032000-
WEST-CENTRAL ILLINOIS

CITY           SKY/WX    TMP DP  RH WIND       PRES   REMARKS
QUINCY         MOSUNNY   42  32  67 SE7       30.31F
GALESBURG*     CLOUDY    36  27  70 CALM      30.35S
MACOMB*        CLOUDY    38  30  71 NE3       30.36F
JACKSONVILLE*  PTSUNNY   40  32  73 E6        30.34F
PITTSFIELD*    CLOUDY    42  34  73 E3        30.33F
$$

ILZ028>032-037-038-041>044-048-051>054-059>061-032000-
CENTRAL ILLINOIS

CITY           SKY/WX    TMP DP  RH WIND       PRES   REMARKS
BLOOMINGTON    CLOUDY    35  27  72 N3        30.35F
DECATUR        CLOUDY    39  30  70 CALM      30.36F
PEORIA         CLOUDY    37  27  67 CALM      30.36F
LACON*         CLOUDY    34  26  71 W5        30.36F WCI  30
LINCOLN*       CLOUDY    39  30  72 NE5       30.36F
SPRINGFIELD    CLOUDY    41  30  65 CALM      30.36F
TAYLORVILLE    CLOUDY    40  31  71 CALM      30.35F
$$

ILZ033-039-045-046-055>057-062-063-032000-
EAST-CENTRAL ILLINOIS

CITY           SKY/WX    TMP DP  RH WIND       PRES   REMARKS
CHAMPAIGN      CLOUDY    37  28  70 W5        30.37S WCI  33
MATTOON        CLOUDY    40  28  62 CALM      30.35F
PARIS*         CLOUDY    37  30  74 NW3       30.37F
$$

ILZ079-100>102-032000-
SOUTHWEST ILLINOIS

CITY           SKY/WX    TMP DP  RH WIND       PRES   REMARKS
ALTON          CLOUDY    41  34  75 E6        30.34F
BELLEVILLE     CLOUDY    42  33  70 S5        30.31F
CAHOKIA*       MOSUNNY   43  31  62 S7        30.33F
SPARTA*        CLOUDY    42  32  68 SE3       30.34F
$$

ILZ064>066-069>071-074>076-080>082-084>086-088>090-092>094-032000-
SOUTH-CENTRAL ILLINOIS

CITY           SKY/WX    TMP DP  RH WIND       PRES   REMARKS
CARBONDALE     CLOUDY    44  32  62 E5        30.33F
CAIRO*         CLOUDY    43  32  64 NE7       30.32F
MARION         CLOUDY    45  32  61 SE5       30.34F
CENTRALIA*     MOSUNNY   44  34  68 CALM      30.33F
SALEM*         MOSUNNY   44  32  64 CALM      30.34F
$$

ILZ067-068-072-073-078-083-087-091-032000-
SOUTHEAST ILLINOIS

CITY           SKY/WX    TMP DP  RH WIND       PRES   REMARKS
LAWRENCEVILLE  MOSUNNY   44  30  57 CALM      30.35
FAIRFIELD*     MOSUNNY   42  33  69 CALM      30.33F
HARRISBURG*    CLOUDY    44  34  67 E3        30.34F
ROBINSON*      CLOUDY    41  29  62 CALM      30.37F
CARMI*         CLOUDY    44  33  64 E3        30.34F
$$

ABBREVIATIONS USED IN REMARKS
   TC - TEMPERATURE IN CELSIUS
  WCI - WIND CHILL INDEX
   HX - HEAT INDEX
  VSB - VISIBILITY
$$





USA.gov is the U.S. government's official web portal to all federal, state and local government web resources and services.